This demonstration page uses our WeatherBlox Daily Observations layout. Learn more.

Left ArrowRight Arrow

38.83388, -104.82136

Hourly Observations for May 18, 2022

Temp ( °F °C ) Dew Point ( °F °C ) Humidity (%) Winds ( mph kmh ) Pressure ( in mb ) Visibility ( mi km ) Precip ( " mm )
12:58 am 00:58 undefined N/A N/A N/A undefined N/A N/A N/A 0.00 0.00
1:58 am 01:58 Clear 62 16.8 32 0 32 32 NW 13 20 29.83 1010 10 16 0.00 0.00
2:58 am 02:58 Mostly Cloudy 61 16 31 -0.3 33 33 W 5 7 29.85 1011 10 16 0.00 0.00
3:58 am 03:58 undefined N/A N/A N/A undefined N/A N/A N/A 0.00 0.00
4:58 am 04:58 Clear 56 13.1 41 4.8 57 57 W 3 6 29.67 1005 10 16 0.00 0.00
5:58 am 05:58 Sunny 56 13.6 41 5.2 57 57 SW 6 9 29.67 1005 10 16 0.00 0.00
6:58 am 06:58 Sunny 58 14.4 40 4.7 52 52 SE 5 7 29.94 1014 10 16 0.00 0.00
7:58 am 07:58 Sunny 60 15.8 42 5.4 50 50 SE 12 19 29.79 1009 10 16 0.00 0.00
8:58 am 08:58 Sunny 64 17.9 46 7.6 51 51 SE 15 24 29.90 1013 10 16 0.00 0.00
9:58 am 09:58 Sunny 67 19.7 38 3.4 34 34 SE 28 44 29.83 1010 10 16 0.00 0.00
10:58 am 10:58 Sunny 69 20.7 37 3 31 31 SSE 22 35 29.80 1009 10 16 0.00 0.00
11:58 am 11:58 Sunny 73 22.6 38 3.2 28 28 SSE 18 30 29.76 1008 10 16 0.00 0.00
12:58 pm 12:58 Mostly Cloudy 74 23.1 37 2.5 26 26 SSE 25 41 29.71 1006 10 16 0.00 0.00
1:52 pm 13:52 Mostly Cloudy with Thunderstorms 72 22 36 2 27 27 S 17 28 29.68 1005 10 16 0.00 0.00
1:58 pm 13:58 Mostly Cloudy with Thunderstorms 72 22.4 35 1.9 26 26 SSE 10 17 29.70 1006 10 16 0.00 0.00
2:07 pm 14:07 Mostly Cloudy 75 24 36 2 24 24 SE 14 22 29.69 1005 10 16 0.00 0.00
2:22 pm 14:22 Mostly Cloudy with Nearby Thunderstorms 75 24 32 0 21 21 S 17 28 29.73 1007 10 16 0.00 0.00
2:36 pm 14:36 Cloudy with Thunderstorms 73 23 32 0 22 22 NNE 13 20 29.72 1007 10 16 0.00 0.00
2:39 pm 14:39 Cloudy with Thunderstorms 72 22 32 0 23 23 NNW 14 22 29.73 1007 10 16 0.00 0.00
2:56 pm 14:56 Cloudy with Nearby Thunderstorms 70 21 30 -1 23 23 NNW 14 22 29.71 1006 10 16 0.00 0.00
2:58 pm 14:58 Cloudy with Nearby Thunderstorms 70 21.3 32 -0.1 24 24 N 9 15 29.71 1006 10 16 0.00 0.00
3:01 pm 15:01 Cloudy with Nearby Thunderstorms 70 21 34 1 27 27 N 21 33 29.71 1006 10 16 0.00 0.00
3:02 pm 15:02 Cloudy with Nearby Thunderstorms 70 21 36 2 29 29 NW 21 33 29.71 1006 10 16 0.00 0.00
3:12 pm 15:12 Cloudy with Thunderstorms 66 19 39 4 37 37 NW 6 9 29.66 1004 10 16 0.00 0.00
3:27 pm 15:27 Cloudy with Nearby Thunderstorms 66 19 39 4 37 37 NW 9 15 29.67 1005 10 16 0.00 0.00
3:28 pm 15:28 Cloudy with Nearby Thunderstorms 66 19 39 4 37 37 NW 8 13 29.67 1005 10 16 0.00 0.00
3:58 pm 15:58 Mostly Cloudy 70 21 27 -2.8 20 20 S 10 17 29.67 1005 10 16 0.00 0.00
4:58 pm 16:58 Mostly Cloudy 67 19.4 38 3.1 34 34 NNW 8 13 29.70 1006 10 16 0.00 0.00
5:15 pm 17:15 Mostly Cloudy with Thunderstorms 68 20 37 3 33 33 NNW 10 17 29.69 1005 10 16 0.00 0.00
5:30 pm 17:30 Mostly Cloudy 70 21 37 3 31 31 N 8 13 29.70 1006 10 16 0.00 0.00
5:58 pm 17:58 Mostly Cloudy 69 20.6 36 2.4 30 30 N 9 15 29.69 1005 10 16 0.00 0.00
6:48 pm 18:48 Cloudy with Light Rain 66 19 37 3 35 35 WSW 10 17 29.70 1006 10 16 0.00 0.00
6:58 pm 18:58 Cloudy with Rain 64 17.5 40 4.4 42 42 WSW 16 26 29.68 1005 8 13 0.01 0.25
7:27 pm 19:27 Cloudy 61 16 46 8 59 59 WSW 3 6 29.61 1003 10 16 0.00 0.00
7:58 pm 19:58 Mostly Cloudy 65 18.4 35 1.8 33 33 Calm 29.60 1003 10 16 0.01 0.25
8:58 pm 20:58 Clear 64 17.8 34 1.3 33 33 S 9 15 29.62 1003 10 16 0.00 0.00
9:58 pm 21:58 Clear 64 17.7 35 1.6 34 34 S 13 20 29.61 1003 10 16 0.00 0.00
10:58 pm 22:58 Clear 62 16.8 36 2 37 37 SSW 15 24 29.59 1002 10 16 0.00 0.00
11:58 pm 23:58 Clear 62 16.6 35 1.8 37 37 SW 15 24 29.55 1001 10 16 0.00 0.00

Powered by AerisWeather